Wind_Speed
13 13 13 14 15 15 15 15 15 15 16 16 17 17 18 18 18 18 18 18 18 19 19 20 21 22 22 23 23 24 24 25 25 25 26 27 27 27
13 14 14 15 15 15 15 15 15 16 16 17 17 18 19 19 19 19 18 19 20 20 21 21 22 23 23 23 24 25 25 24 25 26 27 27 27 28
13 13 13 14 15 15 15 15 15 15 16 17 17 18 18 18 19 19 19 20 21 21 22 22 22 23 23 23 24 24 25 25 26 27 28 27 27 27
13 13 14 14 15 14 15 15 15 16 16 17 18 18 19 19 20 21 21 21 21 21 22 23 23 23 23 24 25 25 26 26 27 28 28 27 28 29
15 15 15 15 15 15 16 16 17 17 18 18 19 19 19 20 20 21 22 22 22 23 23 24 24 24 24 25 26 27 27 27 28 28 28 29 29 30
16 16 16 16 16 16 17 18 18 19 19 20 20 20 20 21 21 21 22 22 23 24 24 25 25 26 26 26 27 27 28 28 28 29 29 30 30 30
17 17 17 17 17 18 19 19 20 20 21 21 21 22 21 21 22 22 23 24 24 25 25 26 26 27 27 27 28 28 28 28 29 29 30 30 30 31
18 19 19 19 19 19 20 21 21 22 22 22 22 23 23 24 24 24 24 25 26 26 27 27 27 27 28 29 29 29 29 30 29 30 30 31 31 31
20 20 20 20 20 21 21 22 22 23 23 23 23 24 24 25 25 26 26 26 27 27 28 28 28 29 29 29 29 29 30 30 30 31 31 31 31 32
21 22 22 22 22 22 23 23 24 24 24 25 25 25 26 26 26 27 27 28 28 29 30 30 30 30 30 31 30 30 30 30 31 31 31 31 31 31
24 23 23 24 24 24 25 25 25 25 26 26 27 27 27 28 28 29 29 29 30 31 31 32 31 32 32 32 31 31 31 31 31 31 31 31 31 31
26 26 25 26 26 27 27 26 26 26 27 28 28 28 29 30 30 30 31 31 31 31 32 33 33 33 33 32 31 31 31 31 31 31 31 31 31 32
27 27 27 27 28 28 28 28 28 28 28 29 30 30 30 31 31 31 31 31 32 32 33 33 34 33 33 33 32 32 32 32 32 32 32 32 32 32
29 29 29 29 29 30 30 30 30 30 30 31 31 31 32 32 32 32 32 33 33 33 33 33 34 33 33 33 33 32 32 33 33 33 33 32 32 32
31 30 30 30 31 32 32 32 32 32 32 32 31 32 33 33 33 33 34 33 33 33 34 34 34 34 34 34 34 33 33 33 33 33 33 33 32 32
32 32 32 32 33 33 33 33 33 33 33 33 33 33 34 34 34 34 34 34 34 34 34 35 34 34 34 35 35 35 34 34 34 33 33 33 32 32
35 34 34 34 34 34 34 34 34 34 33 34 34 34 34 34 34 34 35 35 35 35 35 35 35 35 35 35 35 36 35 35 34 34 33 33 32 32
35 35 35 35 35 35 35 35 34 34 34 34 34 35 35 35 35 35 36 36 35 35 36 36 36 36 36 36 36 37 36 35 35 34 33 33 32 32
38 37 37 36 36 36 36 35 35 35 36 36 36 35 36 36 36 36 36 36 36 37 37 36 36 37 37 36 36 36 36 36 35 34 34 33 32 32
38 38 38 38 38 37 37 37 37 37 37 37 37 36 37 37 37 37 37 36 37 37 38 37 37 37 37 36 36 36 36 35 34 33 33 32 32 31
39 39 39 39 38 38 38 38 38 38 38 37 37 38 38 38 38 38 38 38 38 38 38 38 38 38 37 36 36 35 34 34 34 32 32 32 31 30
40 40 40 40 40 39 39 39 39 39 39 38 38 38 39 39 39 39 39 39 39 39 39 39 38 38 37 36 36 35 34 34 33 32 32 32 31 30
40 40 41 41 41 40 40 40 40 40 40 39 39 39 40 40 39 39 40 40 40 40 39 39 38 38 37 37 36 36 35 35 34 32 32 32 31 31
Wind_Direction
296 296 295 291 292 294 291 289 289 289 290 290 291 288 288 287 285 288 289 289 291 291 290 289 289 288 287 289 290 288 288 287 287 287 287 287 288 288
297 295 295 295 294 293 294 292 290 290 291 291 292 291 290 289 289 291 290 290 291 291 291 292 291 290 289 289 290 289 289 289 289 288 288 289 289 288
302 299 299 299 298 297 296 297 295 293 294 295 295 295 293 292 291 290 292 292 292 292 293 293 293 292 292 291 292 291 290 289 290 290 291 289 288 287
306 303 301 299 299 300 298 297 296 298 298 297 298 298 295 292 292 293 293 295 295 295 295 293 293 294 293 293 291 290 290 290 290 292 290 289 289 288
306 306 305 302 300 298 298 298 297 298 298 299 298 299 299 299 298 297 296 295 294 295 296 294 293 293 292 291 291 291 291 290 290 290 289 289 288 288
306 304 304 302 299 297 297 298 298 299 299 298 297 298 299 298 297 298 298 298 298 297 296 296 296 295 294 294 294 294 293 292 291 290 289 290 289 288
305 302 301 301 300 298 297 296 297 298 299 299 298 297 297 297 297 297 296 295 297 297 296 297 297 298 298 297 297 296 296 294 292 291 291 292 290 290
304 301 300 300 299 299 298 297 297 296 296 297 296 296 295 296 296 296 295 295 296 297 297 296 296 297 298 298 298 296 295 294 294 293 292 292 290 290
304 300 299 300 299 299 300 299 298 297 295 296 297 296 296 296 296 296 295 295 296 296 296 296 296 297 297 297 298 297 296 294 294 293 291 290 289 289
306 304 301 300 300 299 299 298 297 297 296 296 297 296 296 297 296 295 294 295 295 295 295 296 296 296 295 296 297 296 296 296 295 294 293 292 291 290
305 305 303 300 300 299 298 297 297 296 296 297 297 297 296 296 295 294 293 294 294 295 295 295 296 295 295 296 297 296 295 296 296 294 294 293 292 292
303 302 301 300 299 299 298 297 297 296 297 296 295 296 296 296 295 294 293 293 294 294 294 295 296 296 296 297 296 295 295 295 295 295 294 294 293 292
299 298 298 298 299 299 299 298 297 297 297 296 296 295 295 296 295 295 294 294 295 295 295 296 296 296 296 296 296 295 294 294 293 294 294 295 294 292
300 298 297 297 297 297 298 298 297 297 297 297 295 295 296 296 295 294 294 295 295 295 295 295 296 296 295 295 296 296 295 294 293 293 292 293 292 292
298 297 297 296 297 298 298 297 297 296 296 296 296 295 295 295 294 294 294 294 295 295 294 295 296 296 295 295 295 295 295 294 293 293 292 293 292 291
299 298 297 296 296 297 298 298 297 297 295 295 295 296 295 295 294 293 293 294 295 295 295 296 296 296 296 296 296 295 295 294 294 293 293 291 291 290
299 299 299 298 297 297 297 296 296 296 295 295 295 295 295 294 293 293 293 294 294 294 294 295 295 295 295 296 296 295 294 293 292 291 292 292 291 290
297 297 298 297 297 297 297 296 295 295 295 295 295 295 295 294 294 293 293 294 293 293 294 294 295 295 295 295 295 295 294 293 292 291 291 290 290 290
294 295 296 296 296 296 296 295 295 295 293 294 294 294 294 295 295 294 294 294 293 293 294 294 294 294 294 295 295 295 294 294 292 291 291 290 290 289
293 293 294 295 295 295 295 295 294 294 294 294 294 294 294 295 295 295 295 294 293 293 293 293 293 293 293 294 294 294 294 294 292 291 291 290 290 290
291 291 292 293 294 294 295 295 295 294 294 294 294 294 294 295 295 295 295 294 293 293 293 293 293 292 291 292 293 293 293 293 293 292 291 291 290 289
288 289 290 291 291 292 293 293 294 294 294 294 294 294 294 294 294 294 294 294 293 292 292 292 292 291 290 290 291 292 292 292 292 291 291 291 289 288
287 288 289 290 290 290 291 292 292 293 293 293 293 293 293 293 293 293 293 294 293 292 291 291 291 291 290 289 290 291 291 290 290 290 290 289 288 288
Height
5881 5880 5880 5879 5878 5877 5876 5876 5875 5874 5873 5872 5871 5870 5869 5868 5867 5865 5864 5864 5863 5861 5860 5859 5858 5857 5856 5855 5853 5852 5851 5849 5848 5846 5845 5844 5842 5841
5878 5877 5876 5875 5875 5874 5872 5872 5871 5870 5869 5868 5867 5865 5864 5863 5861 5860 5860 5859 5857 5856 5855 5854 5853 5851 5850 5848 5847 5846 5844 5843 5841 5840 5838 5837 5835 5834
5874 5874 5873 5872 5871 5870 5869 5868 5867 5866 5865 5864 5863 5861 5860 5858 5857 5855 5855 5854 5852 5851 5850 5848 5847 5845 5843 5842 5841 5839 5838 5836 5834 5833 5831 5829 5828 5826
5871 5870 5869 5868 5867 5866 5865 5864 5863 5862 5861 5860 5858 5856 5855 5853 5852 5851 5849 5848 5847 5845 5844 5842 5841 5839 5837 5836 5834 5832 5830 5829 5827 5825 5824 5822 5820 5818
5868 5867 5866 5865 5864 5862 5861 5860 5859 5858 5857 5856 5854 5852 5850 5849 5847 5846 5844 5843 5841 5840 5838 5836 5834 5833 5831 5829 5827 5825 5823 5821 5819 5818 5816 5814 5812 5810
5865 5864 5862 5861 5860 5858 5857 5856 5855 5853 5852 5851 5849 5847 5846 5844 5842 5841 5839 5837 5835 5834 5832 5830 5828 5826 5824 5822 5820 5817 5815 5813 5811 5809 5807 5806 5804 5802
5861 5860 5858 5857 5855 5854 5853 5852 5850 5848 5847 5845 5844 5842 5840 5839 5837 5835 5833 5831 5830 5828 5826 5824 5822 5820 5817 5815 5812 5810 5808 5806 5803 5801 5799 5797 5795 5793
5857 5855 5853 5852 5851 5849 5848 5846 5845 5843 5842 5840 5838 5836 5834 5833 5831 5829 5827 5825 5823 5821 5819 5817 5815 5812 5810 5807 5805 5802 5800 5798 5795 5793 5791 5789 5787 5785
5853 5850 5849 5847 5846 5844 5843 5841 5839 5838 5836 5835 5833 5831 5829 5827 5825 5823 5820 5819 5816 5814 5812 5810 5807 5805 5802 5799 5797 5795 5792 5789 5787 5784 5782 5780 5778 5775
5848 5846 5844 5842 5840 5839 5837 5835 5834 5832 5830 5828 5826 5824 5822 5820 5817 5815 5813 5811 5809 5806 5804 5802 5799 5797 5794 5791 5789 5786 5784 5781 5778 5776 5773 5771 5768 5766
5843 5841 5839 5837 5835 5833 5831 5829 5827 5825 5823 5821 5819 5817 5815 5812 5810 5808 5805 5803 5801 5798 5796 5793 5791 5788 5786 5783 5780 5778 5775 5772 5769 5767 5764 5762 5759 5757
5838 5835 5833 5831 5829 5827 5824 5822 5820 5818 5816 5814 5812 5810 5807 5804 5802 5800 5797 5795 5792 5790 5787 5784 5782 5779 5777 5774 5771 5768 5766 5763 5760 5758 5755 5753 5750 5748
5832 5829 5827 5825 5822 5820 5818 5815 5813 5811 5808 5806 5804 5802 5799 5797 5794 5791 5788 5786 5784 5781 5778 5775 5773 5770 5768 5765 5762 5759 5756 5754 5751 5749 5746 5744 5741 5739
5824 5822 5820 5817 5815 5813 5810 5808 5805 5803 5801 5798 5796 5793 5791 5788 5785 5782 5780 5777 5774 5772 5769 5766 5764 5761 5758 5756 5753 5751 5748 5745 5742 5739 5737 5734 5732 5730
5816 5814 5812 5809 5807 5804 5802 5799 5797 5794 5792 5789 5787 5785 5782 5779 5776 5774 5771 5768 5765 5762 5759 5757 5754 5751 5749 5746 5744 5741 5738 5736 5733 5730 5727 5725 5722 5720
5808 5805 5803 5801 5798 5796 5793 5790 5788 5785 5783 5780 5778 5775 5773 5770 5767 5764 5762 5759 5756 5753 5750 5747 5744 5742 5739 5737 5734 5731 5729 5726 5723 5721 5718 5715 5713 5711
5799 5797 5794 5792 5789 5787 5784 5781 5779 5776 5773 5771 5768 5765 5763 5760 5757 5755 5752 5749 5747 5744 5741 5738 5735 5732 5729 5727 5724 5721 5719 5716 5713 5710 5708 5706 5703 5701
5790 5788 5785 5783 5780 5777 5775 5772 5769 5766 5764 5761 5758 5756 5753 5750 5748 5745 5742 5739 5736 5734 5731 5728 5725 5723 5720 5716 5714 5711 5708 5706 5703 5700 5697 5695 5693 5691
5780 5778 5776 5773 5770 5767 5765 5762 5759 5757 5754 5751 5748 5746 5743 5740 5737 5734 5731 5729 5726 5723 5720 5718 5715 5712 5709 5707 5703 5700 5698 5695 5692 5690 5687 5685 5683 5681
5770 5767 5765 5762 5760 5757 5754 5751 5749 5746 5743 5741 5738 5735 5732 5729 5727 5724 5721 5718 5715 5712 5710 5707 5704 5701 5698 5696 5693 5690 5687 5684 5682 5679 5677 5674 5672 5670
5759 5757 5754 5752 5749 5746 5743 5740 5738 5735 5732 5730 5727 5724 5721 5718 5715 5712 5710 5707 5704 5701 5699 5696 5693 5690 5687 5685 5682 5680 5677 5674 5671 5669 5666 5665 5663 5660
5748 5745 5743 5740 5738 5735 5732 5730 5727 5724 5721 5718 5716 5713 5710 5707 5704 5701 5698 5695 5693 5690 5687 5684 5681 5678 5676 5674 5671 5669 5666 5664 5661 5658 5656 5654 5652 5651
5736 5733 5731 5729 5726 5723 5721 5718 5716 5713 5710 5707 5704 5701 5698 5695 5692 5689 5686 5683 5680 5678 5675 5672 5669 5667 5664 5662 5660 5658 5655 5653 5651 5649 5647 5644 5642 5640